Time,TemperatureF,DewpointF,PressureIn,WindDirection,WindDirectionDegrees,WindSpeedMPH,WindSpeedGustMPH,Humidity,HourlyPrecipIn,Conditions,Clouds,dailyrainin,SoftwareType,DateUTC
2013-01-19 00:04:00,20.8,-1.9,29.91,SSW,210,0.0,0.0,36,0.00,,---,0.00,VWS V13.01,2013-01-19 05:04:00,
2013-01-19 00:09:00,21.2,-1.0,29.91,SSW,210,0.0,0.0,37,0.00,,---,0.00,VWS V13.01,2013-01-19 05:09:00,
2013-01-19 00:14:00,21.2,-1.6,29.88,SSW,211,0.0,0.0,36,0.00,,---,0.00,VWS V13.01,2013-01-19 05:14:00,
2013-01-19 00:19:00,21.2,-1.6,29.88,SSW,210,0.0,0.0,36,0.00,,---,0.00,VWS V13.01,2013-01-19 05:19:00,
2013-01-19 00:24:00,21.2,-1.6,29.88,SSW,211,0.0,0.0,36,0.00,,---,0.00,VWS V13.01,2013-01-19 05:24:00,
2013-01-19 00:29:00,21.0,-1.7,29.88,SSW,210,0.0,0.0,36,0.00,,---,0.00,VWS V13.01,2013-01-19 05:29:00,
2013-01-19 00:34:00,21.0,-1.7,29.88,SSW,211,0.0,0.0,36,0.00,,---,0.00,VWS V13.01,2013-01-19 05:34:00,
2013-01-19 00:39:00,20.5,-1.6,29.88,SSW,210,0.0,0.0,37,0.00,,---,0.00,VWS V13.01,2013-01-19 05:39:00,
2013-01-19 00:44:00,20.3,-1.2,29.88,SSW,211,0.0,0.0,38,0.00,,---,0.00,VWS V13.01,2013-01-19 05:44:00,
2013-01-19 00:49:00,20.7,-0.4,29.88,SSW,211,0.0,0.0,39,0.00,,---,0.00,VWS V13.01,2013-01-19 05:49:00,
2013-01-19 00:54:00,20.8,0.3,29.88,SSW,211,0.0,0.0,40,0.00,,---,0.00,VWS V13.01,2013-01-19 05:54:00,
2013-01-19 00:59:00,20.8,0.9,29.88,SSW,211,0.0,0.0,41,0.00,,---,0.00,VWS V13.01,2013-01-19 05:59:00,
2013-01-19 01:04:00,21.2,1.7,29.88,SSW,211,0.0,0.0,42,0.00,,---,0.00,VWS V13.01,2013-01-19 06:04:00,
2013-01-19 01:09:00,21.6,2.0,29.88,SSW,210,0.0,0.0,42,0.00,,---,0.00,VWS V13.01,2013-01-19 06:09:00,
2013-01-19 01:14:00,21.7,1.7,29.88,SSW,210,0.0,0.0,41,0.00,,---,0.00,VWS V13.01,2013-01-19 06:14:00,
2013-01-19 01:19:00,21.9,1.3,29.88,SSW,211,3.6,3.6,40,0.00,,---,0.00,VWS V13.01,2013-01-19 06:19:00,
2013-01-19 01:24:00,22.1,0.4,29.88,SSW,211,0.0,3.6,38,0.00,,---,0.00,VWS V13.01,2013-01-19 06:24:00,
2013-01-19 01:29:00,22.3,-0.6,29.88,SSW,210,0.0,2.7,36,0.00,,---,0.00,VWS V13.01,2013-01-19 06:29:00,
2013-01-19 01:34:00,22.6,-0.3,29.88,SSW,211,0.0,3.1,36,0.00,,---,0.00,VWS V13.01,2013-01-19 06:34:00,
2013-01-19 01:39:00,23.0,0.0,29.88,SSW,211,3.6,3.6,36,0.00,,---,0.00,VWS V13.01,2013-01-19 06:39:00,
2013-01-19 01:44:00,23.7,0.1,29.88,East,90,4.0,5.8,35,0.00,,---,0.00,VWS V13.01,2013-01-19 06:44:00,
2013-01-19 01:49:00,24.3,-0.1,29.88,ENE,70,0.0,5.8,34,0.00,,---,0.00,VWS V13.01,2013-01-19 06:49:00,
2013-01-19 01:54:00,24.6,-0.4,29.88,NE,55,3.6,4.0,33,0.00,,---,0.00,VWS V13.01,2013-01-19 06:54:00,
2013-01-19 01:59:00,25.2,0.1,29.85,ESE,112,0.0,6.3,33,0.00,,---,0.00,VWS V13.01,2013-01-19 06:59:00,
2013-01-19 02:04:00,25.5,-0.2,29.85,East,93,3.6,8.1,32,0.00,,---,0.00,VWS V13.01,2013-01-19 07:04:00,
2013-01-19 02:09:00,26.1,0.2,29.85,NE,48,4.0,6.3,32,0.00,,---,0.00,VWS V13.01,2013-01-19 07:09:00,
2013-01-19 02:14:00,26.4,0.6,29.85,East,92,3.6,5.4,32,0.00,,---,0.00,VWS V13.01,2013-01-19 07:14:00,
2013-01-19 02:19:00,26.8,0.2,29.85,ESE,106,3.1,10.5,31,0.00,,---,0.00,VWS V13.01,2013-01-19 07:19:00,
2013-01-19 02:24:00,27.0,0.4,29.85,East,99,3.1,8.1,31,0.00,,---,0.00,VWS V13.01,2013-01-19 07:24:00,
2013-01-19 02:29:00,27.1,0.5,29.85,SE,139,2.7,8.1,31,0.00,,---,0.00,VWS V13.01,2013-01-19 07:29:00,
2013-01-19 02:34:00,27.1,0.5,29.85,ESE,121,2.7,7.2,31,0.00,,---,0.00,VWS V13.01,2013-01-19 07:34:00,
2013-01-19 02:39:00,27.3,0.7,29.85,East,84,3.6,6.3,31,0.00,,---,0.00,VWS V13.01,2013-01-19 07:39:00,
2013-01-19 02:44:00,27.5,0.8,29.85,ENE,65,5.8,8.1,31,0.00,,---,0.00,VWS V13.01,2013-01-19 07:44:00,
2013-01-19 02:49:00,27.5,0.8,29.85,ESE,102,0.0,7.6,31,0.00,,---,0.00,VWS V13.01,2013-01-19 07:49:00,
2013-01-19 02:54:00,27.7,1.0,29.85,ENE,67,4.0,5.8,31,0.00,,---,0.00,VWS V13.01,2013-01-19 07:54:00,
2013-01-19 02:59:00,27.7,1.0,29.85,NE,41,2.2,7.6,31,0.00,,---,0.00,VWS V13.01,2013-01-19 07:59:00,
2013-01-19 03:04:00,27.7,1.0,29.85,East,81,5.4,7.6,31,0.00,,---,0.00,VWS V13.01,2013-01-19 08:04:00,
2013-01-19 03:09:00,27.7,1.0,29.85,East,79,0.0,6.3,31,0.00,,---,0.00,VWS V13.01,2013-01-19 08:09:00,
2013-01-19 03:14:00,27.7,1.0,29.83,East,98,3.1,7.6,31,0.00,,---,0.00,VWS V13.01,2013-01-19 08:14:00,
2013-01-19 03:19:00,27.5,0.8,29.83,NE,41,3.6,4.0,31,0.00,,---,0.00,VWS V13.01,2013-01-19 08:19:00,
2013-01-19 03:24:00,27.5,0.8,29.83,ESE,106,5.4,5.8,31,0.00,,---,0.00,VWS V13.01,2013-01-19 08:24:00,
2013-01-19 03:29:00,27.5,0.8,29.83,East,91,5.8,8.1,31,0.00,,---,0.00,VWS V13.01,2013-01-19 08:29:00,
2013-01-19 03:34:00,27.5,0.8,29.83,ESE,115,2.2,6.7,31,0.00,,---,0.00,VWS V13.01,2013-01-19 08:34:00,
2013-01-19 03:44:00,27.7,1.0,29.83,ESE,120,0.0,5.8,31,0.00,,---,0.00,VWS V13.01,2013-01-19 08:44:00,
2013-01-19 03:49:00,27.7,1.0,29.83,ENE,74,4.9,5.8,31,0.00,,---,0.00,VWS V13.01,2013-01-19 08:49:00,
2013-01-19 03:54:00,27.5,0.8,29.83,ESE,105,2.7,4.9,31,0.00,,---,0.00,VWS V13.01,2013-01-19 08:54:00,
2013-01-19 03:59:00,27.5,0.8,29.83,SE,136,9.6,9.6,31,0.00,,---,0.00,VWS V13.01,2013-01-19 08:59:00,
2013-01-19 04:04:00,27.7,1.0,29.83,ESE,107,3.6,9.6,31,0.00,,---,0.00,VWS V13.01,2013-01-19 09:04:00,
2013-01-19 04:09:00,27.9,1.2,29.83,ESE,122,4.0,8.7,31,0.00,,---,0.00,VWS V13.01,2013-01-19 09:09:00,
2013-01-19 04:19:00,28.4,1.6,29.83,ESE,111,2.7,8.1,31,0.00,,---,0.00,VWS V13.01,2013-01-19 09:19:00,
2013-01-19 04:24:00,28.4,1.6,29.83,ENE,68,3.1,7.6,31,0.00,,---,0.00,VWS V13.01,2013-01-19 09:24:00,
2013-01-19 04:29:00,28.6,1.8,29.80,NE,42,4.9,8.3,31,0.00,,---,0.00,VWS V13.01,2013-01-19 09:29:00,
2013-01-19 04:34:00,28.6,1.8,29.80,NE,41,3.1,7.6,31,0.00,,---,0.00,VWS V13.01,2013-01-19 09:34:00,
2013-01-19 04:39:00,28.8,2.0,29.80,ENE,63,7.6,8.1,31,0.00,,---,0.00,VWS V13.01,2013-01-19 09:39:00,
2013-01-19 04:44:00,28.9,2.1,29.80,SE,124,5.4,10.5,31,0.00,,---,0.00,VWS V13.01,2013-01-19 09:44:00,
2013-01-19 04:49:00,28.9,2.1,29.80,NE,39,4.0,8.3,31,0.00,,---,0.00,VWS V13.01,2013-01-19 09:49:00,
2013-01-19 04:54:00,29.1,2.3,29.80,NE,42,4.0,9.6,31,0.00,,---,0.00,VWS V13.01,2013-01-19 09:54:00,
2013-01-19 04:59:00,29.3,2.4,29.80,NE,47,3.6,8.3,31,0.00,,---,0.00,VWS V13.01,2013-01-19 09:59:00,
2013-01-19 05:04:00,29.5,2.6,29.80,East,90,7.6,10.5,31,0.00,,---,0.00,VWS V13.01,2013-01-19 10:04:00,
2013-01-19 05:09:00,29.7,2.7,29.80,ESE,110,5.8,9.6,31,0.00,,---,0.00,VWS V13.01,2013-01-19 10:09:00,
2013-01-19 05:14:00,29.8,2.9,29.80,SSE,166,4.9,10.1,31,0.00,,---,0.00,VWS V13.01,2013-01-19 10:14:00,
2013-01-19 05:19:00,30.0,3.1,29.80,ESE,114,5.4,8.1,31,0.00,,---,0.00,VWS V13.01,2013-01-19 10:19:00,
2013-01-19 05:24:00,30.0,3.1,29.80,NNE,26,7.6,15.0,31,0.00,,---,0.00,VWS V13.01,2013-01-19 10:24:00,
2013-01-19 05:29:00,30.2,3.2,29.80,East,79,6.3,11.9,31,0.00,,---,0.00,VWS V13.01,2013-01-19 10:29:00,
2013-01-19 05:34:00,30.2,3.2,29.80,East,82,10.1,11.4,31,0.00,,---,0.00,VWS V13.01,2013-01-19 10:34:00,
2013-01-19 05:39:00,30.4,3.4,29.80,ENE,64,7.6,12.8,31,0.00,,---,0.00,VWS V13.01,2013-01-19 10:39:00,
2013-01-19 05:44:00,30.6,3.5,29.80,SSE,148,8.3,10.5,31,0.00,,---,0.00,VWS V13.01,2013-01-19 10:44:00,
2013-01-19 05:49:00,30.6,3.5,29.80,ESE,122,5.4,12.8,31,0.00,,---,0.00,VWS V13.01,2013-01-19 10:49:00,
2013-01-19 05:54:00,30.7,3.7,29.80,ENE,67,4.9,15.4,31,0.00,,---,0.00,VWS V13.01,2013-01-19 10:54:00,
2013-01-19 05:59:00,30.7,3.7,29.77,SSE,150,4.9,13.2,31,0.00,,---,0.00,VWS V13.01,2013-01-19 10:59:00,
2013-01-19 06:04:00,30.7,3.7,29.77,ESE,106,2.7,10.1,31,0.00,,---,0.00,VWS V13.01,2013-01-19 11:04:00,
2013-01-19 06:09:00,30.9,3.8,29.77,ENE,67,13.2,13.2,31,0.00,,---,0.00,VWS V13.01,2013-01-19 11:09:00,
2013-01-19 07:49:00,32.7,6.8,29.77,ESE,104,4.9,11.0,33,0.00,,---,0.00,VWS V13.01,2013-01-19 12:49:00,
2013-01-19 07:54:00,32.5,7.3,29.77,ENE,64,10.5,12.3,34,0.00,,---,0.00,VWS V13.01,2013-01-19 12:54:00,
2013-01-19 07:59:00,32.9,7.0,29.77,SSE,149,5.4,10.5,33,0.00,,---,0.00,VWS V13.01,2013-01-19 12:59:00,
2013-01-19 08:04:00,32.9,7.6,29.77,NE,49,8.3,8.7,34,0.00,,---,0.00,VWS V13.01,2013-01-19 13:04:00,
2013-01-19 08:09:00,32.9,7.6,29.77,East,91,7.6,11.4,34,0.00,,---,0.00,VWS V13.01,2013-01-19 13:09:00,
2013-01-19 08:14:00,32.9,7.6,29.77,East,86,7.6,10.1,34,0.00,,---,0.00,VWS V13.01,2013-01-19 13:14:00,
2013-01-19 08:19:00,32.9,7.6,29.77,SE,135,3.1,11.0,34,0.00,,---,0.00,VWS V13.01,2013-01-19 13:19:00,
2013-01-19 08:24:00,32.9,7.6,29.77,SE,125,8.3,9.6,34,0.00,,---,0.00,VWS V13.01,2013-01-19 13:24:00,
2013-01-19 08:29:00,32.9,7.6,29.77,NE,55,6.7,8.3,34,0.00,,---,0.00,VWS V13.01,2013-01-19 13:29:00,
2013-01-19 08:34:00,33.1,7.8,29.77,NE,52,4.0,10.1,34,0.00,,---,0.00,VWS V13.01,2013-01-19 13:34:00,
2013-01-19 08:39:00,33.6,8.3,29.77,ESE,114,7.6,10.1,34,0.00,,---,0.00,VWS V13.01,2013-01-19 13:39:00,
2013-01-19 08:44:00,33.8,7.8,29.77,ESE,115,3.1,8.7,33,0.00,,---,0.00,VWS V13.01,2013-01-19 13:44:00,
2013-01-19 08:49:00,34.0,7.9,29.77,East,85,5.8,15.4,33,0.00,,---,0.00,VWS V13.01,2013-01-19 13:49:00,
2013-01-19 08:54:00,34.3,8.2,29.77,NE,51,5.8,7.2,33,0.00,,---,0.00,VWS V13.01,2013-01-19 13:54:00,
2013-01-19 08:59:00,34.5,8.4,29.77,SE,134,4.9,11.0,33,0.00,,---,0.00,VWS V13.01,2013-01-19 13:59:00,
2013-01-19 09:04:00,35.1,8.9,29.77,ENE,65,10.1,11.0,33,0.00,,---,0.00,VWS V13.01,2013-01-19 14:04:00,
2013-01-19 09:09:00,35.6,8.7,29.77,East,89,8.3,11.0,32,0.00,,---,0.00,VWS V13.01,2013-01-19 14:09:00,
2013-01-19 09:14:00,35.8,8.8,29.74,NE,51,5.4,8.7,32,0.00,,---,0.00,VWS V13.01,2013-01-19 14:14:00,
2013-01-19 09:19:00,35.8,8.8,29.74,ENE,77,8.7,11.0,32,0.00,,---,0.00,VWS V13.01,2013-01-19 14:19:00,
2013-01-19 09:24:00,36.0,9.0,29.74,East,87,8.3,10.1,32,0.00,,---,0.00,VWS V13.01,2013-01-19 14:24:00,
2013-01-19 09:29:00,36.1,8.4,29.77,SSE,152,3.1,10.1,31,0.00,,---,0.00,VWS V13.01,2013-01-19 14:29:00,
2013-01-19 09:39:00,36.5,8.8,29.77,SE,124,6.3,11.0,31,0.00,,---,0.00,VWS V13.01,2013-01-19 14:39:00,
2013-01-19 09:44:00,36.9,9.1,29.77,ESE,110,2.7,8.7,31,0.00,,---,0.00,VWS V13.01,2013-01-19 14:44:00,
2013-01-19 09:54:00,37.2,8.6,29.77,East,83,10.5,10.5,30,0.00,,---,0.00,VWS V13.01,2013-01-19 14:54:00,
2013-01-19 10:04:00,37.8,9.1,29.77,North,8,7.6,11.0,30,0.00,,---,0.00,VWS V13.01,2013-01-19 15:04:00,
2013-01-19 10:14:00,38.5,9.0,29.74,ESE,106,6.3,8.7,29,0.00,,---,0.00,VWS V13.01,2013-01-19 15:14:00,
2013-01-19 10:19:00,38.7,9.2,29.74,SE,142,7.6,13.2,29,0.00,,---,0.00,VWS V13.01,2013-01-19 15:19:00,
2013-01-19 10:24:00,38.8,9.3,29.74,SSE,150,2.2,13.2,29,0.00,,---,0.00,VWS V13.01,2013-01-19 15:24:00,
2013-01-19 10:29:00,39.2,9.6,29.74,East,88,11.0,11.0,29,0.00,,---,0.00,VWS V13.01,2013-01-19 15:29:00,
2013-01-19 10:39:00,39.6,9.9,29.74,North,11,3.1,9.6,29,0.00,,---,0.00,VWS V13.01,2013-01-19 15:39:00,
2013-01-19 10:44:00,39.6,9.9,29.74,East,79,5.4,10.5,29,0.00,,---,0.00,VWS V13.01,2013-01-19 15:44:00,
2013-01-19 10:49:00,39.7,10.1,29.74,ENE,57,3.1,11.0,29,0.00,,---,0.00,VWS V13.01,2013-01-19 15:49:00,
2013-01-19 10:54:00,39.7,10.1,29.74,SE,138,5.8,10.5,29,0.00,,---,0.00,VWS V13.01,2013-01-19 15:54:00,
2013-01-19 10:59:00,39.7,10.1,29.74,East,89,7.6,11.0,29,0.00,,---,0.00,VWS V13.01,2013-01-19 15:59:00,
2013-01-19 11:04:00,39.7,10.1,29.74,ENE,76,3.1,10.5,29,0.00,,---,0.00,VWS V13.01,2013-01-19 16:04:00,
2013-01-19 11:09:00,40.1,10.4,29.74,East,87,8.1,11.9,29,0.00,,---,0.00,VWS V13.01,2013-01-19 16:09:00,
2013-01-19 11:14:00,40.1,10.4,29.71,East,89,8.7,11.0,29,0.00,,---,0.00,VWS V13.01,2013-01-19 16:14:00,
2013-01-19 11:19:00,40.5,10.7,29.71,SE,125,5.4,11.0,29,0.00,,---,0.00,VWS V13.01,2013-01-19 16:19:00,
2013-01-19 11:24:00,40.8,11.0,29.71,NNE,23,5.8,9.6,29,0.00,,---,0.00,VWS V13.01,2013-01-19 16:24:00,
2013-01-19 11:29:00,41.2,10.6,29.71,NNE,24,4.9,8.7,28,0.00,,---,0.00,VWS V13.01,2013-01-19 16:29:00,
2013-01-19 11:34:00,41.4,10.7,29.71,ENE,59,4.9,10.1,28,0.00,,---,0.00,VWS V13.01,2013-01-19 16:34:00,
2013-01-19 11:39:00,41.2,10.6,29.71,ENE,65,8.3,9.2,28,0.00,,---,0.00,VWS V13.01,2013-01-19 16:39:00,
2013-01-19 11:44:00,41.2,10.6,29.68,ENE,57,5.8,8.3,28,0.00,,---,0.00,VWS V13.01,2013-01-19 16:44:00,
2013-01-19 11:49:00,41.4,10.7,29.68,ENE,72,2.2,8.7,28,0.00,,---,0.00,VWS V13.01,2013-01-19 16:49:00,
2013-01-19 11:54:00,41.4,10.7,29.68,NE,52,4.9,9.6,28,0.00,,---,0.00,VWS V13.01,2013-01-19 16:54:00,
2013-01-19 11:59:00,41.2,10.6,29.68,NE,47,3.6,8.7,28,0.00,,---,0.00,VWS V13.01,2013-01-19 16:59:00,
2013-01-19 12:04:00,41.0,10.4,29.68,East,80,8.7,10.1,28,0.00,,---,0.00,VWS V13.01,2013-01-19 17:04:00,
2013-01-19 12:14:00,41.5,10.9,29.65,NE,40,3.6,10.5,28,0.00,,---,0.00,VWS V13.01,2013-01-19 17:14:00,
2013-01-19 12:19:00,41.9,11.2,29.65,ENE,76,6.3,12.3,28,0.00,,---,0.00,VWS V13.01,2013-01-19 17:19:00,
2013-01-19 12:29:00,42.3,11.5,29.65,ESE,105,5.8,11.9,28,0.00,,---,0.00,VWS V13.01,2013-01-19 17:29:00,
2013-01-19 12:34:00,42.4,11.7,29.65,NE,43,3.6,8.3,28,0.00,,---,0.00,VWS V13.01,2013-01-19 17:34:00,
2013-01-19 12:39:00,42.4,11.7,29.65,ENE,60,4.9,8.1,28,0.00,,---,0.00,VWS V13.01,2013-01-19 17:39:00,
2013-01-19 12:44:00,42.4,11.7,29.65,ESE,115,5.4,12.3,28,0.00,,---,0.00,VWS V13.01,2013-01-19 17:44:00,
2013-01-19 12:59:00,43.0,12.1,29.65,ESE,112,5.4,8.7,28,0.00,,---,0.00,VWS V13.01,2013-01-19 17:59:00,
2013-01-19 13:04:00,43.3,12.4,29.65,SE,138,4.9,6.3,28,0.00,,---,0.00,VWS V13.01,2013-01-19 18:04:00,
2013-01-19 13:14:00,43.2,12.3,29.62,SSE,149,6.3,10.1,28,0.00,,---,0.00,VWS V13.01,2013-01-19 18:14:00,
2013-01-19 13:24:00,43.5,12.6,29.62,ESE,106,5.8,7.6,28,0.00,,---,0.00,VWS V13.01,2013-01-19 18:24:00,
2013-01-19 13:29:00,43.7,12.8,29.62,North,6,8.3,8.3,28,0.00,,---,0.00,VWS V13.01,2013-01-19 18:29:00,
2013-01-19 13:39:00,43.9,12.9,29.62,ESE,108,3.6,8.1,28,0.00,,---,0.00,VWS V13.01,2013-01-19 18:39:00,
2013-01-19 13:49:00,44.1,13.1,29.62,ESE,111,5.4,8.3,28,0.00,,---,0.00,VWS V13.01,2013-01-19 18:49:00,
2013-01-19 13:54:00,44.2,13.2,29.62,ENE,65,5.4,6.3,28,0.00,,---,0.00,VWS V13.01,2013-01-19 18:54:00,
2013-01-19 14:04:00,44.1,13.1,29.62,East,93,5.8,9.6,28,0.00,,---,0.00,VWS V13.01,2013-01-19 19:04:00,
2013-01-19 14:09:00,44.4,13.4,29.62,ESE,106,3.1,5.8,28,0.00,,---,0.00,VWS V13.01,2013-01-19 19:09:00,
2013-01-19 14:19:00,44.8,12.9,29.62,SE,131,2.7,6.3,27,0.00,,---,0.00,VWS V13.01,2013-01-19 19:19:00,
2013-01-19 14:24:00,44.8,11.1,29.62,ESE,115,5.4,7.6,25,0.00,,---,0.00,VWS V13.01,2013-01-19 19:24:00,
2013-01-19 14:35:00,45.1,11.4,29.62,NE,37,3.6,5.4,25,0.00,,---,0.00,VWS V13.01,2013-01-19 19:35:00,
2013-01-19 14:44:00,45.1,11.4,29.62,East,84,3.6,6.3,25,0.00,,---,0.00,VWS V13.01,2013-01-19 19:44:00,
2013-01-19 14:49:00,45.3,11.6,29.62,East,86,4.0,5.4,25,0.00,,---,0.00,VWS V13.01,2013-01-19 19:49:00,
2013-01-19 14:54:00,45.3,11.6,29.62,ESE,106,0.0,4.0,25,0.00,,---,0.00,VWS V13.01,2013-01-19 19:54:00,
2013-01-19 15:04:00,45.1,11.4,29.59,ESE,115,4.0,6.3,25,0.00,,---,0.00,VWS V13.01,2013-01-19 20:04:00,
2013-01-19 15:09:00,45.1,11.4,29.59,ENE,78,0.0,8.3,25,0.00,,---,0.00,VWS V13.01,2013-01-19 20:09:00,
2013-01-19 15:14:00,45.1,11.4,29.59,SE,137,3.1,5.8,25,0.00,,---,0.00,VWS V13.01,2013-01-19 20:14:00,
2013-01-19 15:24:00,45.1,11.4,29.59,SE,128,6.3,6.3,25,0.00,,---,0.00,VWS V13.01,2013-01-19 20:24:00,
2013-01-19 15:34:00,45.1,11.4,29.59,ESE,105,2.2,6.7,25,0.00,,---,0.00,VWS V13.01,2013-01-19 20:34:00,
2013-01-19 15:44:00,45.1,11.4,29.59,East,92,3.1,6.3,25,0.00,,---,0.00,VWS V13.01,2013-01-19 20:44:00,
2013-01-19 15:49:00,45.0,11.3,29.59,South,178,2.7,6.3,25,0.00,,---,0.00,VWS V13.01,2013-01-19 20:49:00,
2013-01-19 15:54:00,45.1,11.4,29.59,ENE,73,3.1,7.2,25,0.00,,---,0.00,VWS V13.01,2013-01-19 20:54:00,
2013-01-19 16:04:00,45.0,11.3,29.59,SE,136,4.0,7.6,25,0.00,,---,0.00,VWS V13.01,2013-01-19 21:04:00,
2013-01-19 16:14:00,44.6,11.0,29.59,ESE,107,4.9,4.9,25,0.00,,---,0.00,VWS V13.01,2013-01-19 21:14:00,
2013-01-19 16:19:00,44.4,10.8,29.59,ESE,119,3.6,6.3,25,0.00,,---,0.00,VWS V13.01,2013-01-19 21:19:00,
2013-01-19 16:24:00,44.4,8.9,29.59,SSE,167,2.2,6.3,23,0.00,,---,0.00,VWS V13.01,2013-01-19 21:24:00,
2013-01-19 16:29:00,44.2,10.7,29.59,SSE,166,0.0,3.1,25,0.00,,---,0.00,VWS V13.01,2013-01-19 21:29:00,
2013-01-19 16:39:00,43.7,10.2,29.59,ESE,120,3.1,3.1,25,0.00,,---,0.00,VWS V13.01,2013-01-19 21:39:00,
2013-01-19 16:50:00,43.0,9.6,29.59,ESE,118,0.0,0.0,25,0.00,,---,0.00,VWS V13.01,2013-01-19 21:50:00,
2013-01-19 16:54:00,42.3,11.5,29.59,ESE,118,0.0,0.0,28,0.00,,---,0.00,VWS V13.01,2013-01-19 21:54:00,
2013-01-19 16:59:00,41.5,10.9,29.56,ESE,118,0.0,0.0,28,0.00,,---,0.00,VWS V13.01,2013-01-19 21:59:00,
2013-01-19 17:09:00,40.6,10.9,29.56,ESE,118,0.0,0.0,29,0.00,,---,0.00,VWS V13.01,2013-01-19 22:09:00,
2013-01-19 17:19:00,40.1,11.2,29.56,ESE,119,0.0,0.0,30,0.00,,---,0.00,VWS V13.01,2013-01-19 22:19:00,
2013-01-19 17:24:00,39.7,11.6,29.56,ESE,118,0.0,0.0,31,0.00,,---,0.00,VWS V13.01,2013-01-19 22:24:00,
2013-01-19 17:29:00,39.6,11.4,29.56,ESE,118,0.0,0.0,31,0.00,,---,0.00,VWS V13.01,2013-01-19 22:29:00,
2013-01-19 17:34:00,39.2,11.8,29.56,ESE,118,0.0,0.0,32,0.00,,---,0.00,VWS V13.01,2013-01-19 22:34:00,
2013-01-19 17:39:00,39.2,11.8,29.56,ESE,119,0.0,0.0,32,0.00,,---,0.00,VWS V13.01,2013-01-19 22:39:00,
2013-01-19 17:44:00,38.8,12.2,29.56,ESE,119,0.0,0.0,33,0.00,,---,0.00,VWS V13.01,2013-01-19 22:44:00,
2013-01-19 17:49:00,38.7,12.7,29.56,ESE,118,0.0,0.0,34,0.00,,---,0.00,VWS V13.01,2013-01-19 22:49:00,
2013-01-19 17:54:00,38.7,13.4,29.56,ESE,118,0.0,0.0,35,0.00,,---,0.00,VWS V13.01,2013-01-19 22:54:00,
2013-01-19 17:59:00,38.5,13.9,29.56,ESE,119,0.0,0.0,36,0.00,,---,0.00,VWS V13.01,2013-01-19 22:59:00,
2013-01-19 18:05:00,38.5,15.1,29.56,ESE,118,0.0,0.0,38,0.00,,---,0.00,VWS V13.01,2013-01-19 23:05:00,
2013-01-19 18:14:00,38.3,14.9,29.56,ESE,118,0.0,0.0,38,0.00,,---,0.00,VWS V13.01,2013-01-19 23:14:00,
2013-01-19 18:24:00,38.1,15.4,29.56,ESE,118,0.0,0.0,39,0.00,,---,0.00,VWS V13.01,2013-01-19 23:24:00,
2013-01-19 18:34:00,37.9,15.2,29.56,ESE,119,0.0,0.0,39,0.00,,---,0.00,VWS V13.01,2013-01-19 23:34:00,
2013-01-19 18:44:00,37.9,15.8,29.56,NE,44,0.0,3.6,40,0.00,,---,0.00,VWS V13.01,2013-01-19 23:44:00,
2013-01-19 18:49:00,37.8,15.6,29.56,ENE,58,2.7,4.0,40,0.00,,---,0.00,VWS V13.01,2013-01-19 23:49:00,
2013-01-19 18:59:00,39.2,12.5,29.56,ENE,71,4.0,4.9,33,0.00,,---,0.00,VWS V13.01,2013-01-19 23:59:00,
2013-01-19 19:04:00,40.3,12.8,29.56,NE,54,0.0,4.0,32,0.00,,---,0.00,VWS V13.01,2013-01-20 00:04:00,
2013-01-19 19:09:00,40.6,12.4,29.56,NE,41,3.6,4.0,31,0.00,,---,0.00,VWS V13.01,2013-01-20 00:09:00,
2013-01-19 19:19:00,41.7,12.6,29.56,NNE,33,2.7,5.8,30,0.00,,---,0.00,VWS V13.01,2013-01-20 00:19:00,
2013-01-19 19:24:00,42.1,12.9,29.56,NE,38,4.0,6.3,30,0.00,,---,0.00,VWS V13.01,2013-01-20 00:24:00,
2013-01-19 19:29:00,42.4,13.2,29.56,NE,40,4.0,5.4,30,0.00,,---,0.00,VWS V13.01,2013-01-20 00:29:00,
2013-01-19 19:34:00,42.8,13.5,29.56,NNE,27,3.6,5.4,30,0.00,,---,0.00,VWS V13.01,2013-01-20 00:34:00,
2013-01-19 19:39:00,42.8,13.5,29.56,East,100,2.7,5.4,30,0.00,,---,0.00,VWS V13.01,2013-01-20 00:39:00,
2013-01-19 19:44:00,42.8,14.3,29.53,East,92,5.8,8.7,31,0.00,,---,0.00,VWS V13.01,2013-01-20 00:44:00,
2013-01-19 19:54:00,42.8,14.3,29.53,East,80,2.7,4.0,31,0.00,,---,0.00,VWS V13.01,2013-01-20 00:54:00,
2013-01-19 19:59:00,42.6,14.8,29.53,ENE,65,3.6,6.3,32,0.00,,---,0.00,VWS V13.01,2013-01-20 00:59:00,
2013-01-19 20:04:00,42.6,14.8,29.53,ENE,77,5.4,5.4,32,0.00,,---,0.00,VWS V13.01,2013-01-20 01:04:00,
2013-01-19 20:09:00,42.4,14.7,29.53,East,83,4.0,5.8,32,0.00,,---,0.00,VWS V13.01,2013-01-20 01:09:00,
2013-01-19 20:14:00,42.3,14.5,29.53,ENE,63,0.0,5.4,32,0.00,,---,0.00,VWS V13.01,2013-01-20 01:14:00,
2013-01-19 20:19:00,42.3,15.2,29.53,ENE,62,0.0,3.6,33,0.00,,---,0.00,VWS V13.01,2013-01-20 01:19:00,
2013-01-19 20:24:00,41.9,14.9,29.53,ENE,61,2.2,4.0,33,0.00,,---,0.00,VWS V13.01,2013-01-20 01:24:00,
2013-01-19 20:29:00,41.7,14.8,29.53,East,81,3.1,5.4,33,0.00,,---,0.00,VWS V13.01,2013-01-20 01:29:00,
2013-01-19 20:34:00,41.4,15.1,29.53,ENE,63,5.4,5.4,34,0.00,,---,0.00,VWS V13.01,2013-01-20 01:34:00,
2013-01-19 20:44:00,41.0,15.5,29.53,East,87,3.1,5.4,35,0.00,,---,0.00,VWS V13.01,2013-01-20 01:44:00,
2013-01-19 20:49:00,41.0,15.5,29.53,NE,56,3.6,4.0,35,0.00,,---,0.00,VWS V13.01,2013-01-20 01:49:00,
2013-01-19 20:54:00,40.8,15.9,29.53,East,84,4.0,6.3,36,0.00,,---,0.00,VWS V13.01,2013-01-20 01:54:00,
2013-01-19 21:04:00,40.6,15.8,29.50,East,83,2.7,5.8,36,0.00,,---,0.00,VWS V13.01,2013-01-20 02:04:00,
2013-01-19 21:19:00,40.3,16.1,29.50,East,87,2.7,4.9,37,0.00,,---,0.00,VWS V13.01,2013-01-20 02:19:00,
2013-01-19 21:24:00,40.3,16.1,29.50,ENE,70,4.0,5.4,37,0.00,,---,0.00,VWS V13.01,2013-01-20 02:24:00,
2013-01-19 21:29:00,40.3,16.1,29.50,East,88,2.7,4.0,37,0.00,,---,0.00,VWS V13.01,2013-01-20 02:29:00,
2013-01-19 21:34:00,40.5,15.6,29.50,East,80,3.6,5.4,36,0.00,,---,0.00,VWS V13.01,2013-01-20 02:34:00,
2013-01-19 21:44:00,40.8,14.6,29.50,NE,41,6.3,6.7,34,0.00,,---,0.00,VWS V13.01,2013-01-20 02:44:00,
2013-01-19 21:49:00,41.0,14.8,29.50,East,100,5.8,6.3,34,0.00,,---,0.00,VWS V13.01,2013-01-20 02:49:00,
2013-01-19 21:54:00,41.2,14.3,29.50,East,98,5.8,8.3,33,0.00,,---,0.00,VWS V13.01,2013-01-20 02:54:00,
2013-01-19 22:04:00,41.5,13.9,29.50,ENE,78,4.0,5.8,32,0.00,,---,0.00,VWS V13.01,2013-01-20 03:04:00,
2013-01-19 22:09:00,41.7,13.3,29.50,SE,142,3.6,7.6,31,0.00,,---,0.00,VWS V13.01,2013-01-20 03:09:00,
2013-01-19 22:14:00,41.9,13.5,29.47,NE,51,2.7,8.3,31,0.00,,---,0.00,VWS V13.01,2013-01-20 03:14:00,
2013-01-19 22:19:00,42.1,13.6,29.47,SSE,147,3.6,6.3,31,0.00,,---,0.00,VWS V13.01,2013-01-20 03:19:00,
2013-01-19 22:29:00,42.3,13.1,29.47,East,87,4.0,9.6,30,0.00,,---,0.00,VWS V13.01,2013-01-20 03:29:00,
2013-01-19 22:34:00,42.3,13.1,29.47,SSE,147,3.1,8.1,30,0.00,,---,0.00,VWS V13.01,2013-01-20 03:34:00,
2013-01-19 22:39:00,42.3,13.1,29.47,ESE,108,5.8,9.2,30,0.00,,---,0.00,VWS V13.01,2013-01-20 03:39:00,
2013-01-19 22:44:00,42.3,13.1,29.47,SE,126,5.4,9.2,30,0.00,,---,0.00,VWS V13.01,2013-01-20 03:44:00,
2013-01-19 22:54:00,42.3,12.3,29.47,ENE,60,4.0,8.1,29,0.00,,---,0.00,VWS V13.01,2013-01-20 03:54:00,
2013-01-19 23:04:00,42.1,12.9,29.47,East,86,6.3,11.0,30,0.00,,---,0.00,VWS V13.01,2013-01-20 04:04:00,
2013-01-19 23:14:00,42.1,12.1,29.47,NE,35,3.6,10.1,29,0.00,,---,0.00,VWS V13.01,2013-01-20 04:14:00,
2013-01-19 23:19:00,42.1,12.1,29.47,ESE,122,2.7,8.3,29,0.00,,---,0.00,VWS V13.01,2013-01-20 04:19:00,
2013-01-19 23:24:00,42.1,12.1,29.47,North,0,6.3,8.1,29,0.00,,---,0.00,VWS V13.01,2013-01-20 04:24:00,
2013-01-19 23:29:00,42.1,12.1,29.44,East,89,6.3,8.3,29,0.00,,---,0.00,VWS V13.01,2013-01-20 04:29:00,
2013-01-19 23:39:00,42.1,12.1,29.44,NE,50,8.3,8.3,29,0.00,,---,0.00,VWS V13.01,2013-01-20 04:39:00,
2013-01-19 23:44:00,42.1,12.1,29.44,NE,43,3.6,10.1,29,0.00,,---,0.00,VWS V13.01,2013-01-20 04:44:00,
2013-01-19 23:54:00,42.1,12.9,29.44,ENE,73,5.4,11.0,30,0.00,,---,0.00,VWS V13.01,2013-01-20 04:54:00,
2013-01-19 23:59:00,41.9,12.0,29.44,East,87,5.8,8.7,29,0.00,,---,0.00,VWS V13.01,2013-01-20 04:59:00,